Orbital Elements at Epoch 2457045.5 (2015-Jan-23.0) TDB
Reference: JPL 51 (heliocentric ecliptic J2000)
Element | Value | Uncertainty (1-sigma) | Units |
e | .3821592696256221 | 1.265e-07 | |
a | 5.860117486916286 | 9.2651e-08 | au |
q | 3.620619268196022 | 7.3252e-07 | au |
i | 23.46391152377497 | 1.2843e-05 | deg |
node | 55.07105055005159 | 2.9314e-05 | deg |
peri | 4.868166010531844 | 7.1157e-05 | deg |
M | 275.5097621342352 | 3.0339e-05 | deg |
tp | 2458261.579433006221 (2018-May-23.07943301) | 0.00044069 | TDB |
period | 5181.528741554533 14.19 | 0.00012288 3.364e-07 | d yr |
n | .06947756501144002 | 1.6477e-09 | deg/d |
Q | 8.099615705636548 | 1.2806e-07 | au |
|
| | Orbit Determination Parameters
Additional Information
|